Weather History for North Island, CA

Change the Weather History Date:

Tuesday, February 4, 2014

  Actual Average Record
Temperature  
Mean Temperature 60 °F -  
Max Temperature 68 °F 61 °F 81 °F (2001)
Min Temperature 53 °F 48 °F 43 °F (2002)
Degree Days  
Heating Degree Days 4    
Growing Degree Days 10 (Base 50)    
Moisture  
Dew Point 45 °F    
Average Humidity 59    
Maximum Humidity 75    
Minimum Humidity 42    
Precipitation  
Precipitation 0.00 in - - ()
Sea Level Pressure  
Sea Level Pressure 30.05 in    
Wind  
Wind Speed 6 mph (SSW)    
Max Wind Speed 16 mph    
Max Gust Speed -    
Visibility 10 miles    
Events Rain    
Averages and records for this station are not official NWS values.
T = Trace of Precipitation, MM = Missing Value Source: NWS Daily Summary

Daily Weather History Graph

Daily Weather History Graph

Search for Another Location

Airport:

Trip Planner

Search our weather history database for the weather conditions in past years. The results will help you decide how hot, cold, wet, or windy it might be!

Date:

Astronomy

Feb. 04, 2014 Rise Set
Actual Time 6:41 AM PST 5:24 PM PST
Civil Twilight 6:15 AM PST 5:50 PM PST
Nautical Twilight 5:46 AM PST 6:19 PM PST
Astronomical Twilight 5:17 AM PST 6:48 PM PST
Moon 9:42 AM PST (2/4) 11:01 PM PST (2/4)
Length of Visible Light 11h 34m
Length of Day
10h 43m
Waxing Crescent, 30% of the Moon is Illuminated
Feb 4
Waxing Crescent
Feb 6
First Quarter
Feb 14
Full
Feb 22
Last Quarter
Mar 1
New

Hourly Weather History & Observations

Time (PST) Temp. Dew Point Humidity Pressure Visibility Wind Dir Wind Speed Gust Speed Precip Events Conditions
12:52 AM 57.0 °F 46.0 °F 67% 30.01 in 10.0 mi East 4.6 mph - N/A   Mostly Cloudy
1:52 AM 55.9 °F 46.0 °F 69% 30.01 in 10.0 mi East 6.9 mph - N/A   Scattered Clouds
2:52 AM 54.0 °F 45.0 °F 72% 30.01 in 10.0 mi East 6.9 mph - N/A   Scattered Clouds
3:52 AM 54.0 °F 46.0 °F 75% 30.01 in 10.0 mi ESE 6.9 mph - N/A   Partly Cloudy
4:52 AM 53.1 °F 45.0 °F 74% 30.01 in 10.0 mi East 6.9 mph - N/A   Scattered Clouds
5:52 AM 55.0 °F 46.0 °F 72% 30.03 in 10.0 mi Calm Calm - N/A   Mostly Cloudy
6:52 AM 55.9 °F 46.9 °F 72% 30.04 in 10.0 mi ESE 6.9 mph - N/A   Mostly Cloudy
7:11 AM 57.0 °F 46.9 °F 69% 30.05 in 10.0 mi ESE 8.1 mph - 0.00 in Rain Light Rain
7:39 AM 57.0 °F 48.0 °F 72% 30.06 in 10.0 mi ESE 5.8 mph - 0.00 in   Mostly Cloudy
7:52 AM 57.9 °F 48.0 °F 70% 30.06 in 10.0 mi East 5.8 mph - 0.00 in   Mostly Cloudy
8:52 AM 63.0 °F 50.0 °F 63% 30.07 in 10.0 mi ESE 6.9 mph - N/A   Mostly Cloudy
9:52 AM 64.9 °F 46.0 °F 50% 30.09 in 10.0 mi WSW 9.2 mph - N/A   Mostly Cloudy
10:52 AM 66.0 °F 44.1 °F 45% 30.10 in 10.0 mi SW 8.1 mph - N/A   Mostly Cloudy
11:52 AM 68.0 °F 44.1 °F 42% 30.07 in 10.0 mi SW 10.4 mph - N/A   Mostly Cloudy
12:52 PM 66.0 °F 44.1 °F 45% 30.05 in 10.0 mi West 8.1 mph - N/A   Mostly Cloudy
12:56 PM 57.9 °F 44.1 °F 60% 30.07 in 10.0 mi WNW 16.1 mph - N/A   Mostly Cloudy
1:52 PM 66.9 °F 44.1 °F 44% 30.04 in 10.0 mi West 9.2 mph - N/A   Mostly Cloudy
2:52 PM 66.0 °F 45.0 °F 47% 30.03 in 10.0 mi SW 9.2 mph - N/A   Mostly Cloudy
3:52 PM 64.9 °F 44.1 °F 47% 30.02 in 10.0 mi WSW 8.1 mph - N/A   Mostly Cloudy
4:52 PM 62.1 °F 44.1 °F 52% 30.02 in 10.0 mi WSW 4.6 mph - N/A   Mostly Cloudy
5:52 PM 61.0 °F 45.0 °F 56% 30.04 in 10.0 mi West 5.8 mph - N/A   Mostly Cloudy
6:52 PM 61.0 °F 45.0 °F 56% 30.05 in 10.0 mi West 3.5 mph - N/A   Mostly Cloudy
7:52 PM 61.0 °F 45.0 °F 56% 30.07 in 10.0 mi West 4.6 mph - N/A   Mostly Cloudy
8:52 PM 60.1 °F 44.1 °F 55% 30.08 in 10.0 mi SW 3.5 mph - N/A   Mostly Cloudy
9:52 PM 60.1 °F 44.1 °F 55% 30.09 in 10.0 mi WSW 3.5 mph - N/A   Mostly Cloudy
10:52 PM 61.0 °F 43.0 °F 52% 30.09 in 10.0 mi SSW 3.5 mph - N/A   Mostly Cloudy
11:52 PM 61.0 °F 42.1 °F 50% 30.09 in 10.0 mi SW 4.6 mph - N/A   Mostly Cloudy